Terug naar catalogus

ELECTRON KICK STAGE R/B

ActiefSSO
NORAD 45728·ROCKET BODY·🇺🇸 United States

Gelanceerd Jun 13, 2020 vanaf Rocket Lab Launch Complex 1

Loading…

Volgende Passages (komende 24 uur)

TLE

VersSource: Space-Track

Epoch: Sep 14, 2026, 20:31 UTC

1 45728U 20037F   26257.85510671  .00007451  00000-0  34183-3 0  9992
2 45728  97.7503 104.1428 0006114 172.0122 188.1211 15.20725052131822

Volg ELECTRON KICK STAGE R/B in realtime met AllMySat

Download on the App Store